This demonstration page uses our WeatherBlox Daily Observations layout. Learn more.

Left ArrowRight Arrow

38.83388, -104.82136

Hourly Observations for January 4, 2015

Temp ( °F °C ) Dew Point ( °F °C ) Humidity (%) Winds ( mph kmh ) Pressure ( in mb ) Visibility ( mi km ) Precip ( " mm )
12:39 am 00:39 Partly Cloudy with Scattered Snow Showers 9 -13 5 -15 85 85 VRB 2 4 30.48 1032 10 16 N/A
12:44 am 00:44 Mostly Cloudy with Light Snow 9 -13 7 -14 92 92 E 2 4 30.48 1032 7 11 N/A
12:56 am 00:56 Mostly Cloudy with Light Snow 8 -13.5 5 -15 89 89 NW 1 2 30.28 1025 4 6 N/A
1:06 am 01:06 Partly Cloudy with Scattered Snow Showers 7 -14 5 -15 92 92 VRB 1 2 30.50 1033 5 8 N/A
1:21 am 01:21 Mostly Clear 7 -14 5 -15 92 92 undefined N/A 30.50 1033 10 16 N/A
1:23 am 01:23 Mostly Clear with Light Snow Showers 7 -14 5 -15 92 92 NW 3 6 30.50 1033 10 16 N/A
1:38 am 01:38 Mostly Clear 7 -14 5 -15 92 92 NNW 3 6 30.50 1033 10 16 N/A
1:56 am 01:56 Clear 7 -14 4 -15.4 89 89 VRB 1 2 30.32 1027 10 16 N/A
2:09 am 02:09 Mostly Clear with Light Snow Showers 7 -14 5 -15 92 92 VRB 1 2 30.50 1033 10 16 N/A
2:30 am 02:30 Mostly Clear 7 -14 5 -15 92 92 VRB 3 6 30.50 1033 10 16 N/A
2:38 am 02:38 Mostly Clear with Light Snow Showers 7 -14 5 -15 92 92 VRB 1 2 30.50 1033 10 16 N/A
2:53 am 02:53 Mostly Clear 7 -14 5 -15 92 92 Calm 30.56 1035 10 16 N/A
2:56 am 02:56 Mostly Clear 7 -13.9 5 -14.9 92 92 VRB 1 2 30.32 1027 10 16 N/A
3:56 am 03:56 Mostly Clear 6 -14.3 4 -15.3 92 92 NW 6 9 30.32 1027 10 16 N/A
4:56 am 04:56 Cloudy 8 -13.4 6 -14.4 92 92 NE 1 2 30.34 1027 10 16 N/A
5:56 am 05:56 Clear 7 -13.8 5 -14.8 92 92 SSW 2 4 30.37 1029 10 16 N/A
6:56 am 06:56 Clear 6 -14.5 4 -15.7 91 91 VRB 3 6 30.40 1029 10 16 N/A
7:56 am 07:56 Mostly Sunny 7 -14 5 -14.9 93 93 VRB 3 6 30.43 1030 10 16 N/A
8:56 am 08:56 Mostly Sunny 9 -12.9 7 -14 92 92 NE 6 9 30.45 1031 10 16 N/A
9:19 am 09:19 Partly Cloudy with Light Snow Showers 10 -12 9 -13 92 92 VRB 5 7 30.53 1034 10 16 N/A
9:25 am 09:25 Sunny 10 -12 9 -13 92 92 VRB 2 4 30.53 1034 10 16 N/A
9:27 am 09:27 Sunny with Light Snow Showers 10 -12 9 -13 92 92 VRB 2 4 30.53 1034 10 16 N/A
9:39 am 09:39 Sunny 10 -12 9 -13 92 92 ENE 5 7 30.53 1034 10 16 N/A
9:56 am 09:56 Sunny 11 -11.5 8 -13.5 85 85 NE 5 7 30.43 1031 10 16 N/A
10:56 am 10:56 Mostly Cloudy 15 -9.5 10 -12.3 80 80 VRB 6 9 30.41 1030 10 16 N/A
11:56 am 11:56 Mostly Cloudy 18 -7.8 10 -12.2 71 71 ENE 2 4 30.39 1029 10 16 N/A
12:56 pm 12:56 Mostly Cloudy 21 -6.1 12 -10.9 69 69 VRB 5 7 30.36 1028 10 16 N/A
1:56 pm 13:56 Sunny 22 -5.6 13 -10.8 67 67 NNE 6 9 30.37 1029 10 16 N/A
2:56 pm 14:56 Sunny 22 -5.3 12 -11.1 64 64 SSW 2 4 30.38 1029 10 16 N/A
3:56 pm 15:56 Mostly Sunny 22 -5.7 12 -10.9 67 67 VRB 1 2 30.42 1030 10 16 N/A
4:56 pm 16:56 Clear 28 -2.3 15 -9.7 57 57 NNW 7 11 30.42 1030 10 16 N/A
5:56 pm 17:56 Mostly Cloudy 30 -0.9 10 -12.2 42 42 VRB 3 6 30.40 1030 10 16 N/A
6:56 pm 18:56 Mostly Cloudy 29 -1.6 10 -12.4 44 44 VRB 3 6 30.45 1031 10 16 N/A
7:56 pm 19:56 Clear 35 1.9 11 -11.7 36 36 VRB 3 6 30.42 1030 10 16 N/A
8:56 pm 20:56 Clear 29 -1.4 12 -11 48 48 SSW 7 11 30.43 1031 10 16 N/A
9:56 pm 21:56 Clear 33 0.4 13 -10.4 45 45 WSW 3 6 30.42 1030 10 16 N/A
10:56 pm 22:56 Clear 40 4.2 12 -11.1 32 32 SW 6 9 30.34 1027 10 16 N/A
11:56 pm 23:56 Clear 33 0.4 13 -10.8 43 43 VRB 7 11 30.36 1028 10 16 N/A

Powered by AerisWeather